GALAXY 23 (G-23) (27854 NORAD) Tracking and Keplerian Element Data

This shows tracking and keplerian element data for the satellite.

Feedback or suggestion? Click here.




ElementValue
Catalog27854
NameGALAXY 23 (G-23)
Epoch Orbit7760
Epoch Day286.66752514
Epoch Year2024
RAAN87.3999
Inclination1.6069
Eccentricity0.0003036
Argument of Perigee131.0738
Mean Anonmoly282.697
Mean Motion1.00272658
Decay Rate1.3E-07
L11 27854U 03034A 24286.66752514 .00000013 00000+0 00000+0 0 9996
L22 27854 1.6069 87.3999 0003036 131.0738 282.6970 1.00272658 77605



Live tracking and technical data element details for GALAXY 23 (G-23) (NORAD 27854). GALAXY 23 (G-23) can be tracked NOW for your location showing map with azimuth and elevation plus other details from your city location.







IsCatalogInMostPopularTable: catalog: 27854, numindb: 595
Update: records affected: 1



GetName: 27854 GALAXY 23 (G-23)

Hit Count: updated at: Wed, 04 Dec 2024 12:24:53 GMT